W4HSV Weather Reports


time (UTC)temp
F
wind
direction
speed
knots
gust
knots
rain 1hr
in
rain 24hr
in
rain mn
in
humidity
%
barometer
mb
20260503010824 60 327 2.6 4.3 0.00 0.00 0.00 52 1015.7
20260503010711 60 351 2.6 4.3 0.00 0.00 0.00 52 1015.6
20260503010619 60 5 2.6 5.2 0.00 0.00 0.00 52 1015.6
20260503010553 60 5 2.6 7.0 0.00 0.00 0.00 51 1015.6
20260503010346 61 337 2.6 7.8 0.00 0.00 0.00 52 1015.6
20260503010212 61 5 3.5 7.8 0.00 0.00 0.00 51 1015.6
20260503010141 61 349 3.5 7.8 0.00 0.00 0.00 51 1015.6
20260503010027 61 326 3.5 7.8 0.00 0.00 0.00 51 1015.6
20260503005934 61 347 3.5 7.8 0.00 0.00 0.00 51 1015.6
20260503005845 61 342 4.3 7.8 0.00 0.00 0.00 50 1015.6
20260503005711 61 29 5.2 8.7 0.00 0.00 0.00 50 1015.6
20260503005620 61 333 5.2 8.7 0.00 0.00 0.00 50 1015.6
20260503005527 61 344 4.3 8.7 0.00 0.00 0.00 50 1015.5
20260503005414 61 317 3.5 8.7 0.00 0.00 0.00 50 1015.6
20260503005321 61 331 4.3 9.6 0.00 0.00 0.00 49 1015.6
20260503005212 62 342 5.2 9.6 0.00 0.00 0.00 49 1015.5
20260503005119 62 335 6.1 9.6 0.00 0.00 0.00 49 1015.6
20260503005049 62 343 6.1 11.3 0.00 0.00 0.00 49 1015.6
20260503004824 62 346 7.0 11.3 0.00 0.00 0.00 49 1015.5
20260503004714 62 335 7.0 11.3 0.00 0.00 0.00 48 1015.5
20260503004641 62 341 7.0 11.3 0.00 0.00 0.00 48 1015.5
20260503004509 62 355 6.1 13.0 0.00 0.00 0.00 48 1015.5
20260503004416 62 350 5.2 13.0 0.00 0.00 0.00 48 1015.4
20260503004324 62 345 6.1 13.0 0.00 0.00 0.00 47 1015.4
20260503004213 62 339 7.8 13.0 0.00 0.00 0.00 47 1015.5
20260503004123 63 329 7.0 13.0 0.00 0.00 0.00 47 1015.5
20260503004012 63 346 6.1 13.0 0.00 0.00 0.00 46 1015.5
20260503003919 63 9 5.2 13.0 0.00 0.00 0.00 46 1015.4
20260503003826 63 355 6.1 13.0 0.00 0.00 0.00 45 1015.4
20260503003715 63 11 6.1 13.0 0.00 0.00 0.00 45 1015.5
20260503003626 63 39 6.1 10.4 0.00 0.00 0.00 45 1015.5
20260503003556 63 5 6.1 10.4 0.00 0.00 0.00 44 1015.5
20260503003310 63 340 7.0 10.4 0.00 0.00 0.00 44 1015.4
20260503003217 63 348 7.0 10.4 0.00 0.00 0.00 44 1015.4
20260503003143 63 347 7.8 10.4 0.00 0.00 0.00 44 1015.4
20260503003012 63 335 5.2 10.4 0.00 0.00 0.00 43 1015.3
20260503002919 63 339 4.3 12.2 0.00 0.00 0.00 43 1015.2
20260503002826 63 322 4.3 12.2 0.00 0.00 0.00 43 1015.2
20260503002713 63 317 4.3 12.2 0.00 0.00 0.00 43 1015.3
20260503002620 63 306 4.3 12.2 0.00 0.00 0.00 43 1015.3
20260503002548 63 331 6.1 12.2 0.00 0.00 0.00 43 1015.1
20260503002417 63 333 6.1 12.2 0.00 0.00 0.00 43 1015.1
20260503002326 64 346 5.2 12.2 0.00 0.00 0.00 43 1015.1
20260503002213 64 355 5.2 12.2 0.00 0.00 0.00 42 1015.0
20260503002120 64 318 6.1 12.2 0.00 0.00 0.00 42 1015.0
20260503002053 64 321 6.1 12.2 0.00 0.00 0.00 42 1015.1
20260503001827 64 281 7.0 12.2 0.00 0.00 0.00 42 1015.0
20260503001734 64 309 7.8 12.2 0.00 0.00 0.00 42 1015.0
20260503001622 64 325 7.0 12.2 0.00 0.00 0.00 42 1015.0
20260503001530 64 309 6.1 12.2 0.00 0.00 0.00 42 1015.0
20260503001417 64 316 7.0 11.3 0.00 0.00 0.00 42 1015.0
20260503001344 64 269 7.0 11.3 0.00 0.00 0.00 42 1015.0
20260503001214 64 355 4.3 10.4 0.00 0.00 0.00 42 1014.9
20260503001122 64 336 4.3 10.4 0.00 0.00 0.00 42 1014.9
20260503001029 64 340 5.2 10.4 0.00 0.00 0.00 42 1014.9
20260503000936 64 344 4.3 10.4 0.00 0.00 0.00 42 1014.9
20260503000822 64 271 4.3 10.4 0.00 0.00 0.00 42 1014.9
20260503000749 64 298 4.3 7.8 0.00 0.00 0.00 42 1014.9
20260503000616 64 317 4.3 8.7 0.00 0.00 0.00 42 1014.8
20260503000550 65 327 4.3 8.7 0.00 0.00 0.00 42 1014.8
20260503000323 65 292 5.2 9.6 0.00 0.00 0.00 42 1014.9
20260503000211 65 320 4.3 9.6 0.00 0.00 0.00 42 1014.9
20260503000118 65 286 3.5 11.3 0.00 0.00 0.00 42 1014.9
20260503000009 65 313 3.5 11.3 0.00 0.00 0.00 41 1014.8
20260502235917 65 323 3.5 11.3 0.00 0.00 0.00 41 1014.8
20260502235844 65 302 3.5 11.3 0.00 0.00 0.00 41 1014.8
20260502235710 65 323 5.2 11.3 0.00 0.00 0.00 40 1014.8
20260502235638 65 320 6.1 11.3 0.00 0.00 0.00 40 1014.7
20260502235525 65 327 5.2 11.3 0.00 0.00 0.00 40 1014.7
20260502235416 65 302 5.2 11.3 0.00 0.00 0.00 40 1014.8
20260502235323 65 343 6.1 11.3 0.00 0.00 0.00 40 1014.8
20260502235211 65 341 6.1 11.3 0.00 0.00 0.00 40 1014.8
20260502235119 65 343 6.1 10.4 0.00 0.00 0.00 40 1014.8
20260502235051 66 328 6.1 10.4 0.00 0.00 0.00 40 1014.8
20260502234827 66 285 7.0 10.4 0.00 0.00 0.00 39 1014.7
20260502234735 66 302 7.0 10.4 0.00 0.00 0.00 40 1014.7
20260502234622 66 294 7.0 10.4 0.00 0.00 0.00 40 1014.7
20260502234509 66 315 7.8 10.4 0.00 0.00 0.00 40 1014.6
20260502234416 66 323 7.8 10.4 0.00 0.00 0.00 40 1014.6
20260502234324 66 317 7.8 12.2 0.00 0.00 0.00 40 1014.6
20260502234216 66 323 7.0 12.2 0.00 0.00 0.00 40 1014.7
20260502234124 66 321 6.1 12.2 0.00 0.00 0.00 40 1014.7
20260502234012 66 312 5.2 12.2 0.00 0.00 0.00 40 1014.6
20260502233919 66 336 5.2 12.2 0.00 0.00 0.00 40 1014.6
20260502233827 66 331 5.2 12.2 0.00 0.00 0.00 40 1014.6
20260502233719 66 320 6.1 12.2 0.00 0.00 0.00 40 1014.6
20260502233626 66 313 7.0 12.2 0.00 0.00 0.00 40 1014.6
20260502233556 66 299 7.0 11.3 0.00 0.00 0.00 40 1014.5
20260502233310 66 314 5.2 11.3 0.00 0.00 0.00 40 1014.6
20260502233220 66 292 5.2 11.3 0.00 0.00 0.00 40 1014.6
20260502233127 66 307 6.1 11.3 0.00 0.00 0.00 41 1014.6
20260502233015 66 317 7.8 11.3 0.00 0.00 0.00 40 1014.5
20260502232922 66 311 7.0 11.3 0.00 0.00 0.00 40 1014.5
20260502232809 66 325 6.1 9.6 0.00 0.00 0.00 41 1014.6
20260502232718 66 319 6.1 9.6 0.00 0.00 0.00 40 1014.5
20260502232610 66 321 6.1 9.6 0.00 0.00 0.00 40 1014.5
20260502232517 66 275 7.0 9.6 0.00 0.00 0.00 40 1014.5
20260502232445 66 324 5.2 9.6 0.00 0.00 0.00 41 1014.5
20260502232310 66 312 4.3 9.6 0.00 0.00 0.00 40 1014.5
20260502232217 66 327 4.3 9.6 0.00 0.00 0.00 40 1014.4
20260502232123 66 288 5.2 9.6 0.00 0.00 0.00 40 1014.4
20260502232058 66 315 4.3 9.6 0.00 0.00 0.00 40 1014.4
20260502231812 66 317 3.5 10.4 0.00 0.00 0.00 40 1014.3
20260502231720 66 315 4.3 10.4 0.00 0.00 0.00 39 1014.3
20260502231627 66 300 5.2 10.4 0.00 0.00 0.00 39 1014.4
20260502231518 66 284 5.2 10.4 0.00 0.00 0.00 39 1014.5
20260502231424 66 302 5.2 10.4 0.00 0.00 0.00 40 1014.5
20260502231330 66 307 4.3 10.4 0.00 0.00 0.00 39 1014.5
20260502231235 66 329 6.1 10.4 0.00 0.00 0.00 39 1014.5
20260502231121 66 332 7.0 10.4 0.00 0.00 0.00 38 1014.5
20260502231010 66 338 7.0 10.4 0.00 0.00 0.00 38 1014.4
20260502230922 67 325 6.1 10.4 0.00 0.00 0.00 38 1014.4
20260502230848 67 286 4.3 9.6 0.00 0.00 0.00 39 1014.4
20260502230715 67 300 3.5 9.6 0.00 0.00 0.00 38 1014.5
20260502230623 67 344 3.5 9.6 0.00 0.00 0.00 38 1014.5
20260502230554 67 342 3.5 9.6 0.00 0.00 0.00 38 1014.5
20260502230332 67 355 5.2 9.6 0.00 0.00 0.00 37 1014.4
20260502230219 67 303 7.0 9.6 0.00 0.00 0.00 36 1014.4
20260502230147 67 281 7.0 9.6 0.00 0.00 0.00 36 1014.4
20260502230012 67 302 6.1 9.6 0.00 0.00 0.00 36 1014.4
20260502225920 67 257 6.1 8.7 0.00 0.00 0.00 36 1014.4
20260502225809 68 360 5.2 10.4 0.00 0.00 0.00 36 1014.5
20260502225721 68 297 5.2 10.4 0.00 0.00 0.00 36 1014.5
20260502225628 68 332 5.2 10.4 0.00 0.00 0.00 36 1014.5
20260502225515 68 328 6.1 10.4 0.00 0.00 0.00 36 1014.5
20260502225422 68 318 6.1 10.4 0.00 0.00 0.00 36 1014.5
20260502225309 68 272 4.3 10.4 0.00 0.00 0.00 36 1014.5
20260502225217 68 303 5.2 10.4 0.00 0.00 0.00 36 1014.5
20260502225128 68 307 6.1 10.4 0.00 0.00 0.00 35 1014.5
20260502225058 69 323 6.1 11.3 0.00 0.00 0.00 35 1014.4
20260502224811 69 293 6.1 11.3 0.00 0.00 0.00 35 1014.4
20260502224739 69 286 7.0 11.3 0.00 0.00 0.00 36 1014.4
20260502224610 69 333 6.1 11.3 0.00 0.00 0.00 35 1014.4
20260502224517 69 355 5.2 11.3 0.00 0.00 0.00 35 1014.4
20260502224425 69 317 6.1 11.3 0.00 0.00 0.00 35 1014.4
20260502224311 69 323 7.8 13.9 0.00 0.00 0.00 34 1014.5
20260502224219 69 306 7.0 13.9 0.00 0.00 0.00 35 1014.4
20260502224126 69 344 5.2 13.9 0.00 0.00 0.00 36 1014.4
20260502224016 69 324 3.5 13.9 0.00 0.00 0.00 35 1014.4
20260502223924 69 286 3.5 13.9 0.00 0.00 0.00 35 1014.4
20260502223811 69 360 4.3 13.9 0.00 0.00 0.00 35 1014.3
20260502223719 69 311 7.0 13.9 0.00 0.00 0.00 35 1014.3
20260502223648 69 272 8.7 13.9 0.00 0.00 0.00 35 1014.3
20260502223601 69 271 9.6 13.9 0.00 0.00 0.00 35 1014.3
20260502223314 69 340 7.8 13.0 0.00 0.00 0.00 35 1014.3
20260502223222 69 326 7.8 13.0 0.00 0.00 0.00 35 1014.3
20260502223109 69 326 7.8 13.0 0.00 0.00 0.00 34 1014.3
20260502223016 69 345 7.8 13.0 0.00 0.00 0.00 34 1014.4
20260502222923 69 333 7.0 13.0 0.00 0.00 0.00 35 1014.4
20260502222814 69 316 7.0 13.0 0.00 0.00 0.00 35 1014.3
20260502222720 69 313 8.7 13.0 0.00 0.00 0.00 35 1014.3
20260502222627 69 322 9.6 13.0 0.00 0.00 0.00 35 1014.4
20260502222514 69 317 8.7 13.0 0.00 0.00 0.00 35 1014.3
20260502222421 69 277 7.8 13.0 0.00 0.00 0.00 35 1014.3
20260502222333 69 300 7.8 13.0 0.00 0.00 0.00 35 1014.3
20260502222219 69 249 7.8 13.0 0.00 0.00 0.00 35 1014.2
20260502222146 69 271 7.0 12.2 0.00 0.00 0.00 36 1014.2
20260502222055 69 294 6.1 12.2 0.00 0.00 0.00 36 1014.3
20260502221808 69 250 6.1 12.2 0.00 0.00 0.00 36 1014.3
20260502221719 69 300 7.0 12.2 0.00 0.00 0.00 35 1014.4
20260502221626 69 302 5.2 12.2 0.00 0.00 0.00 36 1014.4
20260502221513 69 338 5.2 12.2 0.00 0.00 0.00 36 1014.4
20260502221419 69 264 6.1 13.9 0.00 0.00 0.00 36 1014.4
20260502221327 69 288 7.0 13.9 0.00 0.00 0.00 35 1014.3
20260502221213 69 304 7.0 13.9 0.00 0.00 0.00 35 1014.3
20260502221124 69 285 7.8 16.5 0.00 0.00 0.00 35 1014.3
20260502221011 69 311 7.8 16.5 0.00 0.00 0.00 35 1014.4
20260502220918 69 297 6.1 16.5 0.00 0.00 0.00 35 1014.3
20260502220825 69 302 6.1 16.5 0.00 0.00 0.00 35 1014.3
20260502220712 69 310 7.8 16.5 0.00 0.00 0.00 35 1014.4
20260502220620 69 324 7.8 16.5 0.00 0.00 0.00 35 1014.4
20260502220554 70 306 8.7 16.5 0.00 0.00 0.00 35 1014.3
20260502220327 70 334 8.7 16.5 0.00 0.00 0.00 35 1014.3
20260502220234 70 348 7.8 13.0 0.00 0.00 0.00 34 1014.3
20260502220120 69 310 6.1 13.0 0.00 0.00 0.00 35 1014.3
20260502220011 69 284 5.2 13.0 0.00 0.00 0.00 36 1014.3
20260502215920 69 321 7.0 13.0 0.00 0.00 0.00 36 1014.3
20260502215826 69 5 6.1 13.0 0.00 0.00 0.00 35 1014.2
20260502215715 69 320 6.1 13.0 0.00 0.00 0.00 35 1014.3
20260502215623 69 293 7.0 13.0 0.00 0.00 0.00 34 1014.3
20260502215531 69 271 6.1 13.0 0.00 0.00 0.00 36 1014.3
20260502215436 69 347 4.3 12.2 0.00 0.00 0.00 35 1014.2
20260502215328 69 286 4.3 12.2 0.00 0.00 0.00 36 1014.2
20260502215235 69 311 4.3 12.2 0.00 0.00 0.00 36 1014.3
20260502215203 69 308 6.1 12.2 0.00 0.00 0.00 36 1014.2
20260502215112 69 290 7.0 12.2 0.00 0.00 0.00 36 1014.3
20260502214825 69 329 8.7 12.2 0.00 0.00 0.00 37 1014.3
20260502214715 69 331 8.7 12.2 0.00 0.00 0.00 37 1014.2
20260502214623 69 5 6.1 11.3 0.00 0.00 0.00 36 1014.2
20260502214529 68 316 7.0 11.3 0.00 0.00 0.00 37 1014.1
20260502214416 68 331 8.7 11.3 0.00 0.00 0.00 37 1014.2
20260502214323 68 340 8.7 11.3 0.00 0.00 0.00 36 1014.2
20260502214210 68 335 8.7 13.9 0.00 0.00 0.00 36 1014.1
20260502214120 68 318 7.0 13.9 0.00 0.00 0.00 37 1014.1
20260502214027 68 317 5.2 13.9 0.00 0.00 0.00 37 1014.1
20260502213934 68 337 5.2 13.9 0.00 0.00 0.00 38 1014.1
20260502213820 68 323 6.1 13.9 0.00 0.00 0.00 37 1014.1
20260502213748 68 344 7.8 13.9 0.00 0.00 0.00 37 1014.2
20260502213615 68 316 8.7 13.9 0.00 0.00 0.00 36 1014.1
20260502213550 68 314 9.6 13.9 0.00 0.00 0.00 36 1014.1
20260502213324 68 360 8.7 13.9 0.00 0.00 0.00 35 1014.1
20260502213211 69 300 8.7 13.9 0.00 0.00 0.00 36 1014.1
20260502213140 69 301 9.6 13.9 0.00 0.00 0.00 36 1014.1
20260502213025 69 341 9.6 13.9 0.00 0.00 0.00 36 1014.1
20260502212918 69 291 6.1 12.2 0.00 0.00 0.00 35 1014.0
20260502212825 69 360 5.2 12.2 0.00 0.00 0.00 35 1014.0
20260502212711 70 360 7.0 13.0 0.00 0.00 0.00 35 1014.0
20260502212619 70 313 6.1 13.0 0.00 0.00 0.00 35 1014.0
20260502212528 70 271 4.3 13.0 0.00 0.00 0.00 36 1014.0
20260502212435 70 234 4.3 13.0 0.00 0.00 0.00 36 1014.0
20260502212325 70 245 6.1 13.0 0.00 0.00 0.00 36 1014.0
20260502212212 70 331 8.7 13.0 0.00 0.00 0.00 37 1014.0
20260502212120 70 5 9.6 13.0 0.00 0.00 0.00 36 1014.0
20260502212050 70 360 9.6 13.9 0.00 0.00 0.00 36 1014.0
20260502211828 69 309 8.7 13.9 0.00 0.00 0.00 36 1014.1
20260502211715 69 338 8.7 13.9 0.00 0.00 0.00 35 1014.1
20260502211623 69 308 8.7 13.9 0.00 0.00 0.00 35 1014.1
20260502211512 69 337 8.7 13.9 0.00 0.00 0.00 35 1014.1
20260502211419 69 329 10.4 13.9 0.00 0.00 0.00 35 1014.2
20260502211310 69 355 9.6 13.9 0.00 0.00 0.00 35 1014.2
20260502211217 69 351 8.7 13.9 0.00 0.00 0.00 35 1014.2
20260502211122 69 290 8.7 13.9 0.00 0.00 0.00 36 1014.2
20260502211009 69 338 9.6 13.9 0.00 0.00 0.00 37 1014.2
20260502210917 69 328 9.6 13.9 0.00 0.00 0.00 38 1014.3
20260502210825 69 309 8.7 13.0 0.00 0.00 0.00 38 1014.3
20260502210716 69 21 8.7 13.0 0.00 0.00 0.00 38 1014.2
20260502210643 69 25 8.7 13.0 0.00 0.00 0.00 38 1014.2
20260502210553 69 355 8.7 14.8 0.00 0.00 0.00 37 1014.3
20260502210346 69 333 8.7 14.8 0.00 0.00 0.00 37 1014.2
20260502210213 69 5 7.8 14.8 0.00 0.00 0.00 36 1014.2
20260502210120 69 336 8.7 14.8 0.00 0.00 0.00 36 1014.2
20260502210031 69 328 8.7 14.8 0.00 0.00 0.00 37 1014.3
20260502205918 69 338 9.6 15.6 0.00 0.00 0.00 37 1014.2
20260502205823 69 310 9.6 15.6 0.00 0.00 0.00 38 1014.2
20260502205711 69 19 9.6 15.6 0.00 0.00 0.00 38 1014.3
20260502205617 69 5 11.3 15.6 0.00 0.00 0.00 39 1014.3
20260502205525 69 342 10.4 15.6 0.00 0.00 0.00 37 1014.3
20260502205437 69 344 9.6 15.6 0.00 0.00 0.00 36 1014.3
20260502205323 69 340 10.4 15.6 0.00 0.00 0.00 36 1014.3
20260502205211 69 19 10.4 15.6 0.00 0.00 0.00 36 1014.2
20260502205119 69 355 10.4 14.8 0.00 0.00 0.00 36 1014.3
20260502205050 69 336 10.4 14.8 0.00 0.00 0.00 35 1014.3
20260502204827 70 331 7.8 14.8 0.00 0.00 0.00 35 1014.3
20260502204715 70 315 6.1 14.8 0.00 0.00 0.00 35 1014.3
20260502204622 70 327 7.8 14.8 0.00 0.00 0.00 36 1014.3
20260502204511 70 273 9.6 17.4 0.00 0.00 0.00 35 1014.2
20260502204418 70 271 9.6 17.4 0.00 0.00 0.00 35 1014.3
20260502204345 70 311 9.6 17.4 0.00 0.00 0.00 35 1014.3
20260502204215 70 333 10.4 17.4 0.00 0.00 0.00 34 1014.3
20260502204143 70 337 9.6 17.4 0.00 0.00 0.00 34 1014.3
20260502204028 70 302 7.8 19.1 0.00 0.00 0.00 35 1014.3
20260502203914 70 297 7.8 19.1 0.00 0.00 0.00 35 1014.3
20260502203842 70 319 10.4 19.1 0.00 0.00 0.00 34 1014.3
20260502203747 70 308 11.3 19.1 0.00 0.00 0.00 34 1014.3
20260502203613 71 296 10.4 19.1 0.00 0.00 0.00 35 1014.3
20260502203547 71 294 10.4 19.1 0.00 0.00 0.00 35 1014.3
20260502203320 70 346 12.2 19.1 0.00 0.00 0.00 35 1014.4
20260502203226 70 342 12.2 19.1 0.00 0.00 0.00 34 1014.2
20260502203114 70 344 10.4 16.5 0.00 0.00 0.00 35 1014.3
20260502203022 70 35 9.6 16.5 0.00 0.00 0.00 34 1014.3
20260502202913 70 323 7.0 14.8 0.00 0.00 0.00 33 1014.4
20260502202820 70 315 6.1 13.0 0.00 0.00 0.00 33 1014.4
20260502202748 70 313 7.8 16.5 0.00 0.00 0.00 33 1014.4
20260502202613 70 270 7.8 16.5 0.00 0.00 0.00 34 1014.6
20260502202520 70 302 7.0 16.5 0.00 0.00 0.00 35 1014.6
20260502202449 70 317 7.0 16.5 0.00 0.00 0.00 36 1014.5
20260502202339 70 360 7.8 16.5 0.00 0.00 0.00 37 1014.4
20260502202227 70 333 8.7 16.5 0.00 0.00 0.00 36 1014.4
20260502202114 70 325 10.4 16.5 0.00 0.00 0.00 37 1014.5
20260502202043 70 355 9.6 16.5 0.00 0.00 0.00 36 1014.5
20260502201817 70 328 8.7 15.6 0.00 0.00 0.00 37 1014.5
20260502201710 70 317 8.7 15.6 0.00 0.00 0.00 37 1014.5
20260502201617 70 333 9.6 15.6 0.00 0.00 0.00 35 1014.6
20260502201545 69 320 9.6 15.6 0.00 0.00 0.00 36 1014.6
20260502201412 69 334 7.0 14.8 0.00 0.00 0.00 36 1014.6
20260502201340 69 333 7.0 14.8 0.00 0.00 0.00 35 1014.6
20260502201227 69 323 7.8 14.8 0.00 0.00 0.00 36 1014.6
20260502201138 69 350 8.7 14.8 0.00 0.00 0.00 35 1014.6
20260502201024 69 342 8.7 14.8 0.00 0.00 0.00 35 1014.6
20260502200930 70 346 10.4 14.8 0.00 0.00 0.00 34 1014.6
20260502200815 70 320 11.3 14.8 0.00 0.00 0.00 33 1014.6
20260502200722 70 326 10.4 14.8 0.00 0.00 0.00 34 1014.6
20260502200610 70 295 9.6 14.8 0.00 0.00 0.00 35 1014.5
20260502200545 70 323 8.7 14.8 0.00 0.00 0.00 33 1014.5
20260502200320 70 316 8.7 14.8 0.00 0.00 0.00 33 1014.4
20260502200248 70 297 8.7 14.8 0.00 0.00 0.00 35 1014.6
20260502200113 70 336 9.6 14.8 0.00 0.00 0.00 34 1014.6
20260502200021 70 333 9.6 14.8 0.00 0.00 0.00 35 1014.6
20260502195911 70 335 9.6 14.8 0.00 0.00 0.00 34 1014.5
20260502195818 70 331 10.4 14.8 0.00 0.00 0.00 35 1014.6
20260502195726 70 316 10.4 14.8 0.00 0.00 0.00 35 1014.6
20260502195613 70 338 8.7 14.8 0.00 0.00 0.00 36 1014.7
20260502195521 70 341 7.8 12.2 0.00 0.00 0.00 35 1014.7
20260502195428 70 301 7.8 12.2 0.00 0.00 0.00 36 1014.6
20260502195340 70 349 7.8 12.2 0.00 0.00 0.00 35 1014.6
20260502195227 70 342 7.8 13.0 0.00 0.00 0.00 35 1014.6
20260502195114 70 305 7.8 13.0 0.00 0.00 0.00 36 1014.6
20260502195044 70 325 7.8 14.8 0.00 0.00 0.00 34 1014.6
20260502194817 70 289 7.0 14.8 0.00 0.00 0.00 36 1014.7
20260502194728 70 317 7.0 14.8 0.00 0.00 0.00 35 1014.7
20260502194637 70 336 7.8 14.8 0.00 0.00 0.00 35 1014.7
20260502194523 70 321 8.7 14.8 0.00 0.00 0.00 36 1014.7
20260502194410 70 309 7.8 14.8 0.00 0.00 0.00 36 1014.8
20260502194318 70 333 8.7 14.8 0.00 0.00 0.00 34 1014.7
20260502194210 70 350 10.4 14.8 0.00 0.00 0.00 34 1014.8
20260502194118 70 321 7.8 13.9 0.00 0.00 0.00 33 1014.7
20260502194025 70 347 6.1 13.9 0.00 0.00 0.00 33 1014.7
20260502193913 70 331 6.1 13.9 0.00 0.00 0.00 33 1014.7
20260502193821 70 324 7.0 13.9 0.00 0.00 0.00 35 1014.7
20260502193709 70 336 7.0 13.9 0.00 0.00 0.00 37 1014.9
20260502193621 70 323 6.1 14.8 0.00 0.00 0.00 36 1014.9
20260502193552 70 355 5.2 14.8 0.00 0.00 0.00 36 1014.8
20260502193325 70 360 5.2 14.8 0.00 0.00 0.00 36 1014.8
20260502193232 70 319 6.1 14.8 0.00 0.00 0.00 36 1014.8
20260502193119 70 355 7.8 14.8 0.00 0.00 0.00 36 1014.9
20260502193009 70 321 9.6 14.8 0.00 0.00 0.00 36 1014.9
20260502192918 70 13 10.4 14.8 0.00 0.00 0.00 35 1014.8
20260502192845 70 323 10.4 14.8 0.00 0.00 0.00 37 1014.8
20260502192710 70 16 8.7 13.9 0.00 0.00 0.00 36 1014.9
20260502192617 70 20 9.6 13.9 0.00 0.00 0.00 35 1014.9
20260502192509 70 340 9.6 13.9 0.00 0.00 0.00 35 1014.8
20260502192438 70 340 8.7 13.0 0.00 0.00 0.00 35 1014.9
20260502192324 70 325 7.0 13.0 0.00 0.00 0.00 35 1014.9
20260502192210 70 314 5.2 12.2 0.00 0.00 0.00 35 1015.0
20260502192137 70 325 6.1 12.2 0.00 0.00 0.00 35 1014.9
20260502192046 70 331 6.1 12.2 0.00 0.00 0.00 36 1014.9
20260502191823 70 333 7.0 12.2 0.00 0.00 0.00 36 1015.0
20260502191710 70 32 7.8 12.2 0.00 0.00 0.00 35 1015.0
20260502191618 70 300 7.8 12.2 0.00 0.00 0.00 36 1015.1
20260502191525 70 301 6.1 13.0 0.00 0.00 0.00 38 1015.1
20260502191433 70 306 5.2 13.0 0.00 0.00 0.00 38 1015.0
20260502191340 70 355 6.1 15.6 0.00 0.00 0.00 36 1015.0
20260502191247 70 344 7.0 15.6 0.00 0.00 0.00 36 1015.0
20260502191117 70 342 7.0 15.6 0.00 0.00 0.00 35 1015.0
20260502191045 70 360 7.8 15.6 0.00 0.00 0.00 34 1015.0
20260502190932 70 311 8.7 15.6 0.00 0.00 0.00 38 1015.0
20260502190819 70 355 8.7 15.6 0.00 0.00 0.00 37 1015.1
20260502190726 70 11 9.6 15.6 0.00 0.00 0.00 36 1015.1
20260502190633 70 329 9.6 15.6 0.00 0.00 0.00 35 1015.1
20260502190549 70 332 8.7 15.6 0.00 0.00 0.00 35 1015.1
20260502190323 70 348 8.7 15.6 0.00 0.00 0.00 36 1015.0
20260502190211 70 343 10.4 15.6 0.00 0.00 0.00 35 1015.1
20260502190117 71 331 9.6 15.6 0.00 0.00 0.00 36 1015.0
20260502190024 71 338 9.6 13.9 0.00 0.00 0.00 36 1015.0
20260502185935 71 355 8.7 13.9 0.00 0.00 0.00 36 1015.0
20260502185821 71 15 7.0 13.0 0.00 0.00 0.00 36 1015.0
20260502185749 71 53 7.0 13.0 0.00 0.00 0.00 38 1015.0
20260502185633 70 5 7.0 13.0 0.00 0.00 0.00 39 1015.0
20260502185540 70 315 6.1 13.0 0.00 0.00 0.00 39 1015.0
20260502185447 70 345 5.2 13.0 0.00 0.00 0.00 39 1015.1
20260502185313 70 355 6.1 13.0 0.00 0.00 0.00 38 1014.9
20260502185220 70 355 7.0 13.0 0.00 0.00 0.00 37 1014.9
20260502185152 70 344 7.0 13.0 0.00 0.00 0.00 37 1015.1
20260502185100 69 344 6.1 13.0 0.00 0.00 0.00 38 1015.2
20260502184813 69 333 7.0 13.0 0.00 0.00 0.00 38 1015.2
20260502184720 69 355 7.8 13.0 0.00 0.00 0.00 40 1015.2
20260502184613 69 355 6.1 13.0 0.00 0.00 0.00 40 1015.2
20260502184520 69 337 5.2 13.0 0.00 0.00 0.00 38 1015.2
20260502184427 69 302 5.2 13.0 0.00 0.00 0.00 38 1015.1
20260502184335 69 315 8.7 13.0 0.00 0.00 0.00 38 1015.2
20260502184223 69 337 9.6 13.0 0.00 0.00 0.00 37 1015.2
20260502184109 69 342 9.6 13.0 0.00 0.00 0.00 37 1015.3
20260502184020 69 306 9.6 13.0 0.00 0.00 0.00 35 1015.3
20260502183927 69 327 8.7 13.0 0.00 0.00 0.00 34 1015.1
20260502183814 69 310 8.7 13.0 0.00 0.00 0.00 36 1015.2
20260502183723 69 268 7.8 13.0 0.00 0.00 0.00 37 1015.2
20260502183609 69 345 7.0 10.4 0.00 0.00 0.00 37 1015.1
20260502183544 69 330 7.0 10.4 0.00 0.00 0.00 40 1015.1
20260502183317 69 321 7.0 10.4 0.00 0.00 0.00 38 1015.2
20260502183223 69 326 5.2 10.4 0.00 0.00 0.00 38 1015.2
20260502183132 69 347 3.5 10.4 0.00 0.00 0.00 40 1015.2
20260502183018 69 290 4.3 15.6 0.00 0.00 0.00 38 1015.2
20260502182818 69 329 7.0 15.6 0.00 0.00 0.00 36 1015.2
20260502182725 69 294 7.0 15.6 0.00 0.00 0.00 39 1015.2
20260502182611 68 318 5.2 15.6 0.00 0.00 0.00 39 1015.2
20260502182518 68 319 5.2 15.6 0.00 0.00 0.00 39 1015.3
20260502182425 68 341 6.1 15.6 0.00 0.00 0.00 40 1015.3
20260502182311 68 348 8.7 15.6 0.00 0.00 0.00 38 1015.3
20260502182223 68 360 8.7 15.6 0.00 0.00 0.00 39 1015.3
20260502182131 68 38 8.7 15.6 0.00 0.00 0.00 38 1015.2
20260502182101 68 344 7.8 13.0 0.00 0.00 0.00 39 1015.3
20260502181815 69 360 6.1 12.2 0.00 0.00 0.00 37 1015.1
20260502181727 69 23 5.2 13.0 0.00 0.00 0.00 37 1015.1
20260502181614 69 347 5.2 13.0 0.00 0.00 0.00 38 1015.2
20260502181543 69 347 6.1 13.0 0.00 0.00 0.00 38 1015.2
20260502181410 69 261 7.8 13.0 0.00 0.00 0.00 38 1015.2
20260502181317 69 338 8.7 13.0 0.00 0.00 0.00 37 1015.2
20260502181226 69 11 6.1 13.0 0.00 0.00 0.00 37 1015.2
20260502181118 69 360 4.3 13.0 0.00 0.00 0.00 38 1015.2
20260502181026 69 355 7.0 13.0 0.00 0.00 0.00 38 1015.2
20260502180915 69 18 7.8 13.0 0.00 0.00 0.00 34 1015.3
20260502180821 69 308 7.8 13.0 0.00 0.00 0.00 37 1015.3
20260502180728 69 329 7.8 13.0 0.00 0.00 0.00 38 1015.3
20260502180620 69 315 7.0 13.0 0.00 0.00 0.00 41 1015.3
20260502180551 69 344 6.1 13.0 0.00 0.00 0.00 38 1015.3
20260502180324 69 5 7.0 13.0 0.00 0.00 0.00 38 1015.3
20260502180211 69 347 9.6 13.0 0.00 0.00 0.00 39 1015.4
20260502180118 68 331 9.6 13.0 0.00 0.00 0.00 39 1015.3
20260502170313 68 336 7.8 14.8 0.00 0.00 0.00 38 1015.8
20260502170220 68 5 7.8 13.9 0.00 0.00 0.00 36 1015.8
20260502170112 68 11 8.7 13.9 0.00 0.00 0.00 38 1015.8
20260502164318 66 12 4.3 13.0 0.00 0.00 0.00 43 1016.1
20260502164226 66 32 5.2 13.0 0.00 0.00 0.00 43 1016.1
20260502164112 66 340 6.1 13.0 0.00 0.00 0.00 42 1016.0
20260502164021 66 5 6.1 13.0 0.00 0.00 0.00 42 1016.0
20260502163913 66 339 4.3 13.9 0.00 0.00 0.00 42 1016.0
20260502163821 66 5 3.5 13.9 0.00 0.00 0.00 42 1016.0
20260502163749 66 13 6.1 13.9 0.00 0.00 0.00 41 1016.0
20260502163615 66 15 7.8 13.9 0.00 0.00 0.00 42 1016.1
20260502163549 66 22 7.8 13.9 0.00 0.00 0.00 42 1016.1
20260502163323 66 24 8.7 13.9 0.00 0.00 0.00 42 1016.2
20260502163210 66 5 8.7 13.9 0.00 0.00 0.00 41 1016.1
20260502163116 66 351 7.8 13.9 0.00 0.00 0.00 41 1016.2
20260502163043 65 41 7.8 13.9 0.00 0.00 0.00 41 1016.2
20260502162910 65 14 9.6 13.0 0.00 0.00 0.00 41 1016.1
20260502162838 65 321 7.8 13.0 0.00 0.00 0.00 41 1016.2
20260502162727 65 351 6.1 12.2 0.00 0.00 0.00 41 1016.2
20260502162615 65 307 4.3 12.2 0.00 0.00 0.00 41 1016.3
20260502162522 65 340 6.1 12.2 0.00 0.00 0.00 41 1016.3
20260502162409 65 5 7.8 12.2 0.00 0.00 0.00 42 1016.3
20260502162317 65 27 7.8 13.9 0.00 0.00 0.00 42 1016.2
20260502162244 65 5 6.1 13.9 0.00 0.00 0.00 43 1016.2
20260502162135 65 342 7.0 13.9 0.00 0.00 0.00 43 1016.3
20260502162044 65 5 7.8 13.9 0.00 0.00 0.00 41 1016.3
20260502161817 65 11 9.6 13.9 0.00 0.00 0.00 41 1016.3
20260502161725 65 14 9.6 13.9 0.00 0.00 0.00 41 1016.3
20260502161617 65 342 8.7 13.9 0.00 0.00 0.00 41 1016.3
20260502161525 65 323 8.7 13.9 0.00 0.00 0.00 42 1016.3
20260502161412 65 5 7.8 13.9 0.00 0.00 0.00 42 1016.3
20260502161320 65 13 7.8 13.9 0.00 0.00 0.00 43 1016.3
20260502161228 65 5 7.8 13.9 0.00 0.00 0.00 43 1016.3
20260502161117 65 5 7.8 15.6 0.00 0.00 0.00 42 1016.4
20260502161008 65 351 7.8 15.6 0.00 0.00 0.00 42 1016.3
20260502160915 65 5 7.8 15.6 0.00 0.00 0.00 43 1016.4
20260502160823 65 9 7.8 15.6 0.00 0.00 0.00 43 1016.4
20260502160749 65 334 8.7 15.6 0.00 0.00 0.00 43 1016.3
20260502160614 65 32 9.6 15.6 0.00 0.00 0.00 41 1016.4
20260502160550 65 348 10.4 15.6 0.00 0.00 0.00 41 1016.4
20260502160323 65 348 10.4 15.6 0.00 0.00 0.00 43 1016.3
20260502160211 65 13 9.6 13.0 0.00 0.00 0.00 43 1016.4
20260502160119 65 19 8.7 13.0 0.00 0.00 0.00 43 1016.4
20260502152219 61 34 6.1 11.3 0.00 0.00 0.00 49 1016.2
20260502152126 61 30 7.0 11.3 0.00 0.00 0.00 49 1016.2
20260502152101 61 15 7.8 11.3 0.00 0.00 0.00 48 1016.2
20260502151815 61 30 7.8 11.3 0.00 0.00 0.00 49 1016.2
20260502151742 61 44 7.0 11.3 0.00 0.00 0.00 49 1016.2
20260502151628 61 42 6.1 11.3 0.00 0.00 0.00 50 1016.1
20260502151516 61 38 6.1 11.3 0.00 0.00 0.00 50 1016.1
20260502151427 61 12 6.1 11.3 0.00 0.00 0.00 50 1016.1
20260502151314 61 18 7.0 11.3 0.00 0.00 0.00 50 1016.1
20260502151221 60 24 7.8 11.3 0.00 0.00 0.00 50 1016.1
20260502151110 60 40 8.7 11.3 0.00 0.00 0.00 50 1016.2
20260502151017 60 15 7.8 11.3 0.00 0.00 0.00 50 1016.0
20260502150910 60 12 7.8 13.0 0.00 0.00 0.00 51 1016.1
20260502150819 60 36 7.0 13.0 0.00 0.00 0.00 50 1016.1
20260502150726 60 38 7.0 13.0 0.00 0.00 0.00 49 1016.1
20260502150613 60 30 6.1 13.0 0.00 0.00 0.00 49 1016.1
20260502150544 60 17 6.1 13.0 0.00 0.00 0.00 50 1016.1
20260502150322 60 11 7.0 13.9 0.00 0.00 0.00 49 1016.0
20260502150210 60 360 8.7 13.9 0.00 0.00 0.00 49 1016.0
20260502150116 60 49 8.7 13.9 0.00 0.00 0.00 49 1016.0
20260502130721 55 16 5.2 10.4 0.00 0.00 0.00 64 1015.4
20260502130630 55 360 3.5 8.7 0.00 0.00 0.00 64 1015.4
20260502130559 55 29 3.5 8.7 0.00 0.00 0.00 64 1015.4
20260502130313 55 54 5.2 8.7 0.00 0.00 0.00 64 1015.3
20260502130224 55 348 6.1 8.7 0.00 0.00 0.00 65 1015.3
20260502130132 55 346 5.2 8.7 0.00 0.00 0.00 65 1015.3
20260502123727 53 23 3.5 8.7 0.00 0.00 0.00 68 1015.5
20260502123614 53 29 2.6 8.7 0.00 0.00 0.00 68 1015.4
20260502123550 52 5 2.6 8.7 0.00 0.00 0.00 68 1015.4
20260502123323 52 360 4.3 8.7 0.00 0.00 0.00 68 1015.4
20260502123230 52 5 5.2 8.7 0.00 0.00 0.00 68 1015.3
20260502123117 52 343 5.2 8.7 0.00 0.00 0.00 68 1015.3
20260502123043 52 355 5.2 8.7 0.00 0.00 0.00 69 1015.3
20260502122949 52 5 6.1 8.7 0.00 0.00 0.00 69 1015.3
20260502122835 52 336 5.2 8.7 0.00 0.00 0.00 69 1015.3
20260502122721 52 10 4.3 8.7 0.00 0.00 0.00 69 1015.3
20260502122632 52 28 4.3 8.7 0.00 0.00 0.00 69 1015.2
20260502122518 52 360 4.3 8.7 0.00 0.00 0.00 70 1015.2
20260502122426 52 13 6.1 8.7 0.00 0.00 0.00 70 1015.2
20260502122312 51 355 5.2 8.7 0.00 0.00 0.00 70 1015.2
20260502122240 51 355 5.2 8.7 0.00 0.00 0.00 71 1015.2
20260502122208 51 5 4.3 7.8 0.00 0.00 0.00 71 1015.3
20260502122121 51 40 4.3 7.8 0.00 0.00 0.00 71 1015.3
20260502121814 51 30 3.5 7.0 0.00 0.00 0.00 72 1015.3
20260502121721 51 360 3.5 7.0 0.00 0.00 0.00 72 1015.3
20260502121608 51 13 3.5 7.0 0.00 0.00 0.00 72 1015.3
20260502121516 50 5 2.6 7.0 0.00 0.00 0.00 72 1015.3
20260502121427 50 330 2.6 7.0 0.00 0.00 0.00 72 1015.3
20260502121315 50 360 3.5 7.0 0.00 0.00 0.00 72 1015.2
20260502121223 50 355 4.3 7.0 0.00 0.00 0.00 72 1015.2
20260502121131 50 355 3.5 7.0 0.00 0.00 0.00 71 1015.1
20260502121018 50 340 3.5 7.0 0.00 0.00 0.00 71 1015.1
20260502120909 50 22 2.6 7.0 0.00 0.00 0.00 71 1015.0
20260502120816 50 342 3.5 7.0 0.00 0.00 0.00 71 1015.0
20260502120743 50 5 3.5 7.0 0.00 0.00 0.00 71 1015.0
20260502120631 50 11 3.5 7.0 0.00 0.00 0.00 71 1014.9
20260502120602 50 329 2.6 4.3 0.00 0.00 0.00 71 1015.0
20260502120335 50 348 2.6 4.3 0.00 0.00 0.00 71 1014.8
20260502120226 50 360 2.6 4.3 0.00 0.00 0.00 71 1014.8
20260502120113 50 9 2.6 4.3 0.00 0.00 0.00 71 1014.8
20260502115815 50 355 2.6 4.3 0.00 0.00 0.00 71 1014.8
20260502115722 50 19 2.6 4.3 0.00 0.00 0.00 70 1014.8
20260502115635 50 348 2.6 4.3 0.00 0.00 0.00 70 1014.8
20260502115522 50 15 2.6 4.3 0.00 0.00 0.00 70 1014.8
20260502115408 50 360 2.6 4.3 0.00 0.00 0.00 70 1014.7
20260502115316 50 17 2.6 5.2 0.00 0.00 0.00 70 1014.8
20260502115245 50 9 2.6 5.2 0.00 0.00 0.00 70 1014.8
20260502115131 50 5 2.6 5.2 0.00 0.00 0.00 70 1014.8
20260502115105 50 24 2.6 5.2 0.00 0.00 0.00 70 1014.8
20260502114817 50 360 2.6 5.2 0.00 0.00 0.00 70 1014.8
20260502114744 50 18 2.6 5.2 0.00 0.00 0.00 70 1014.8
20260502114519 50 360 4.3 7.0 0.00 0.00 0.00 70 1014.8
20260502114410 50 15 3.5 7.0 0.00 0.00 0.00 70 1014.8
20260502114228 50 17 3.5 7.0 0.00 0.00 0.00 70 1014.8
20260502114135 50 355 2.6 7.0 0.00 0.00 0.00 70 1014.7
20260502114021 50 346 2.6 7.0 0.00 0.00 0.00 69 1014.7
20260502113930 50 338 3.5 7.0 0.00 0.00 0.00 69 1014.7
20260502113821 50 28 3.5 7.0 0.00 0.00 0.00 69 1014.7
20260502113708 50 11 4.3 7.0 0.00 0.00 0.00 69 1014.8
20260502113617 50 5 3.5 5.2 0.00 0.00 0.00 69 1014.7
20260502113548 50 355 3.5 5.2 0.00 0.00 0.00 69 1014.7
20260502113340 50 19 3.5 5.2 0.00 0.00 0.00 69 1014.6
20260502113210 50 333 2.6 4.3 0.00 0.00 0.00 69 1014.6
20260502113118 50 13 2.6 4.3 0.00 0.00 0.00 69 1014.6
20260502113026 50 30 2.6 4.3 0.00 0.00 0.00 69 1014.6
20260502112913 50 12 2.6 4.3 0.00 0.00 0.00 69 1014.5
20260502112840 50 15 2.6 4.3 0.00 0.00 0.00 69 1014.5
20260502112727 50 14 2.6 4.3 0.00 0.00 0.00 69 1014.6
20260502112617 50 5 3.5 4.3 0.00 0.00 0.00 69 1014.6
20260502112525 50 28 2.6 3.5 0.00 0.00 0.00 69 1014.6
20260502112412 50 325 1.7 3.5 0.00 0.00 0.00 69 1014.6
20260502112320 50 331 1.7 4.3 0.00 0.00 0.00 69 1014.6
20260502112227 50 349 1.7 4.3 0.00 0.00 0.00 69 1014.6
20260502112136 50 351 2.6 4.3 0.00 0.00 0.00 69 1014.6
20260502112110 50 355 2.6 4.3 0.00 0.00 0.00 69 1014.7
20260502111823 50 360 2.6 4.3 0.00 0.00 0.00 68 1014.6
20260502111731 50 339 2.6 4.3 0.00 0.00 0.00 68 1014.5
20260502111638 50 5 2.6 4.3 0.00 0.00 0.00 68 1014.5
20260502111524 50 22 2.6 4.3 0.00 0.00 0.00 68 1014.5
20260502111417 50 5 2.6 3.5 0.00 0.00 0.00 68 1014.4
20260502111325 51 17 2.6 3.5 0.00 0.00 0.00 68 1014.4
20260502111212 51 28 2.6 3.5 0.00 0.00 0.00 68 1014.4
20260502111120 50 346 2.6 3.5 0.00 0.00 0.00 68 1014.4
20260502111008 51 13 1.7 3.5 0.00 0.00 0.00 68 1014.4
20260502110919 51 343 1.7 3.5 0.00 0.00 0.00 68 1014.4
20260502110827 51 42 2.6 3.5 0.00 0.00 0.00 68 1014.4
20260502110713 51 5 2.6 5.2 0.00 0.00 0.00 68 1014.4
20260502110621 51 30 2.6 5.2 0.00 0.00 0.00 68 1014.4
20260502110552 51 17 2.6 5.2 0.00 0.00 0.00 68 1014.3
20260502110329 51 5 2.6 5.2 0.00 0.00 0.00 68 1014.4
20260502110233 51 5 2.6 5.2 0.00 0.00 0.00 68 1014.2
20260502110119 51 360 2.6 5.2 0.00 0.00 0.00 68 1014.2
20260502110026 51 337 2.6 5.2 0.00 0.00 0.00 67 1014.2
20260502105914 51 11 2.6 5.2 0.00 0.00 0.00 67 1014.3
20260502105821 51 34 2.6 4.3 0.00 0.00 0.00 67 1014.3
20260502105713 51 349 2.6 5.2 0.00 0.00 0.00 67 1014.3
20260502105621 51 11 2.6 5.2 0.00 0.00 0.00 67 1014.3
20260502105527 51 20 2.6 5.2 0.00 0.00 0.00 67 1014.2
20260502105413 51 5 2.6 5.2 0.00 0.00 0.00 67 1014.2
20260502105321 51 348 1.7 5.2 0.00 0.00 0.00 67 1014.2
20260502105213 51 355 2.6 5.2 0.00 0.00 0.00 67 1014.0
20260502105140 51 334 2.6 5.2 0.00 0.00 0.00 67 1014.0
20260502105111 51 343 3.5 5.2 0.00 0.00 0.00 67 1014.0
20260502104823 51 9 3.5 6.1 0.00 0.00 0.00 67 1014.0
20260502104712 51 323 2.6 5.2 0.00 0.00 0.00 67 1014.0
20260502104624 51 355 1.7 5.2 0.00 0.00 0.00 67 1014.0
20260502104512 51 335 2.6 5.2 0.00 0.00 0.00 67 1014.0
20260502104419 51 355 3.5 5.2 0.00 0.00 0.00 67 1014.0
20260502104325 51 360 3.5 5.2 0.00 0.00 0.00 67 1014.0
20260502104213 51 313 3.5 5.2 0.00 0.00 0.00 66 1013.9
20260502104120 51 355 2.6 4.3 0.00 0.00 0.00 67 1013.9
20260502104011 51 350 2.6 4.3 0.00 0.00 0.00 66 1013.9
20260502103919 51 336 2.6 4.3 0.00 0.00 0.00 66 1013.9
20260502103827 51 355 2.6 4.3 0.00 0.00 0.00 66 1013.9
20260502103736 51 355 2.6 4.3 0.00 0.00 0.00 66 1013.9
20260502103622 51 344 2.6 4.3 0.00 0.00 0.00 66 1013.9
20260502103557 51 346 2.6 3.5 0.00 0.00 0.00 66 1013.8
20260502103310 51 5 2.6 3.5 0.00 0.00 0.00 65 1013.8
20260502103217 51 348 2.6 3.5 0.00 0.00 0.00 65 1013.8
20260502103125 51 340 1.7 3.5 0.00 0.00 0.00 65 1013.8
20260502103013 51 5 1.7 3.5 0.00 0.00 0.00 65 1014.0
20260502102924 51 19 1.7 3.5 0.00 0.00 0.00 65 1014.0
20260502102811 51 355 1.7 3.5 0.00 0.00 0.00 65 1013.9
20260502102718 51 5 1.7 3.5 0.00 0.00 0.00 65 1013.9
20260502102626 51 360 1.7 3.5 0.00 0.00 0.00 65 1013.9
20260502102512 51 355 1.7 3.5 0.00 0.00 0.00 65 1013.9
20260502102439 52 5 0.9 3.5 0.00 0.00 0.00 65 1013.9
20260502102330 52 9 1.7 4.3 0.00 0.00 0.00 64 1013.9
20260502102237 52 5 1.7 4.3 0.00 0.00 0.00 65 1013.8
20260502102123 52 5 1.7 4.3 0.00 0.00 0.00 64 1013.8
20260502102053 52 9 1.7 4.3 0.00 0.00 0.00 64 1013.9
20260502101719 52 336 2.6 5.2 0.00 0.00 0.00 64 1013.9
20260502101627 52 9 2.6 5.2 0.00 0.00 0.00 64 1013.8
20260502101515 52 355 2.6 5.2 0.00 0.00 0.00 64 1013.9
20260502101423 52 355 2.6 7.0 0.00 0.00 0.00 64 1013.9
20260502101309 52 327 1.7 7.0 0.00 0.00 0.00 64 1014.0
20260502101220 52 347 2.6 7.0 0.00 0.00 0.00 64 1014.0
20260502101129 52 13 3.5 7.0 0.00 0.00 0.00 64 1013.8
20260502101016 52 355 3.5 7.0 0.00 0.00 0.00 64 1013.9
20260502100924 52 355 3.5 7.0 0.00 0.00 0.00 64 1013.9
20260502100812 52 9 2.6 8.7 0.00 0.00 0.00 63 1013.7
20260502100719 52 344 3.5 8.7 0.00 0.00 0.00 63 1013.7
20260502100631 52 355 3.5 8.7 0.00 0.00 0.00 63 1013.7
20260502100602 52 22 4.3 8.7 0.00 0.00 0.00 63 1013.8
20260502100337 52 360 4.3 8.7 0.00 0.00 0.00 63 1013.7
20260502100223 52 5 4.3 8.7 0.00 0.00 0.00 63 1013.7
20260502100110 52 5 5.2 8.7 0.00 0.00 0.00 63 1013.6
20260502091534 53 5 4.3 8.7 0.00 0.00 0.00 60 1013.7
20260502091420 53 360 5.2 8.7 0.00 0.00 0.00 60 1013.7
20260502091325 53 360 5.2 8.7 0.00 0.00 0.00 60 1013.6
20260502091212 53 14 5.2 8.7 0.00 0.00 0.00 60 1013.7
20260502091121 53 331 4.3 8.7 0.00 0.00 0.00 60 1013.7
20260502091028 53 5 4.3 8.7 0.00 0.00 0.00 60 1013.6
20260502090919 53 360 4.3 8.7 0.00 0.00 0.00 60 1013.6
20260502090827 53 5 5.2 8.7 0.00 0.00 0.00 60 1013.6
20260502090713 53 5 6.1 8.7 0.00 0.00 0.00 60 1013.6
20260502090641 53 5 6.1 8.7 0.00 0.00 0.00 59 1013.6
20260502090552 53 15 6.1 8.7 0.00 0.00 0.00 60 1013.6
20260502090310 53 17 3.5 7.8 0.00 0.00 0.00 59 1013.6
20260502090237 53 5 4.3 7.8 0.00 0.00 0.00 59 1013.6
20260502090124 53 17 5.2 7.8 0.00 0.00 0.00 59 1013.6
20260502071529 55 30 6.1 11.3 0.00 0.00 0.00 56 1014.2
20260502071415 55 11 5.2 11.3 0.00 0.00 0.00 57 1014.1
20260502071343 55 347 5.2 11.3 0.00 0.00 0.00 57 1014.1
20260502071208 55 5 7.0 11.3 0.00 0.00 0.00 56 1014.0
20260502071120 55 13 7.0 11.3 0.00 0.00 0.00 56 1014.0
20260502071028 55 34 7.8 11.3 0.00 0.00 0.00 56 1014.1
20260502070915 55 21 7.0 11.3 0.00 0.00 0.00 56 1014.1
20260502070820 55 360 6.1 11.3 0.00 0.00 0.00 56 1014.1
20260502070749 55 26 6.1 12.2 0.00 0.00 0.00 56 1014.0
20260502070614 55 43 7.0 12.2 0.00 0.00 0.00 56 1014.3
20260502070548 55 25 7.0 12.2 0.00 0.00 0.00 56 1014.3
20260502070321 55 36 7.8 12.2 0.00 0.00 0.00 56 1014.5
20260502070208 55 349 7.0 12.2 0.00 0.00 0.00 56 1014.7
20260502070116 55 19 7.0 12.2 0.00 0.00 0.00 56 1014.8
20260502070008 55 38 7.8 12.2 0.00 0.00 0.00 56 1014.7
20260502065917 55 27 7.8 12.2 0.00 0.00 0.00 56 1014.8
20260502065845 55 350 7.0 12.2 0.00 0.00 0.00 57 1014.8
20260502065731 55 11 5.2 12.2 0.00 0.00 0.00 56 1014.8
20260502065619 55 338 5.2 12.2 0.00 0.00 0.00 56 1014.8
20260502065527 55 13 7.0 12.2 0.00 0.00 0.00 56 1014.7
20260502065415 55 28 6.1 12.2 0.00 0.00 0.00 57 1014.5
20260502065347 55 22 4.3 12.2 0.00 0.00 0.00 56 1014.5
20260502065233 55 9 6.1 11.3 0.00 0.00 0.00 56 1014.5
20260502065120 55 334 7.0 11.3 0.00 0.00 0.00 56 1014.5
20260502065050 55 9 7.8 11.3 0.00 0.00 0.00 56 1014.4
20260502064825 55 34 7.0 11.3 0.00 0.00 0.00 56 1014.5
20260502064717 55 30 7.8 11.3 0.00 0.00 0.00 56 1014.5
20260502064623 55 360 7.0 11.3 0.00 0.00 0.00 56 1014.5
20260502064509 55 11 7.0 11.3 0.00 0.00 0.00 56 1014.5
20260502064417 55 20 7.0 11.3 0.00 0.00 0.00 56 1014.6
20260502064325 55 5 7.0 11.3 0.00 0.00 0.00 56 1014.6
20260502064233 55 32 7.8 11.3 0.00 0.00 0.00 55 1014.6
20260502064123 55 12 7.0 11.3 0.00 0.00 0.00 56 1014.6
20260502064008 55 38 6.1 11.3 0.00 0.00 0.00 56 1014.7
20260502063917 55 15 5.2 10.4 0.00 0.00 0.00 56 1014.6
20260502063823 55 18 5.2 10.4 0.00 0.00 0.00 56 1014.6
20260502063711 55 38 6.1 11.3 0.00 0.00 0.00 56 1014.7
20260502063619 55 355 6.1 11.3 0.00 0.00 0.00 56 1014.7
20260502063554 55 19 7.0 11.3 0.00 0.00 0.00 55 1014.6
20260502063347 55 27 7.8 11.3 0.00 0.00 0.00 56 1014.7
20260502063214 55 14 7.0 11.3 0.00 0.00 0.00 55 1014.6
20260502063123 55 360 6.1 11.3 0.00 0.00 0.00 55 1014.6
20260502063014 55 5 7.0 11.3 0.00 0.00 0.00 55 1014.5
20260502062920 55 25 7.8 11.3 0.00 0.00 0.00 55 1014.5
20260502062826 55 31 7.0 11.3 0.00 0.00 0.00 55 1014.6
20260502062734 55 340 7.0 11.3 0.00 0.00 0.00 55 1014.6
20260502062640 56 5 7.0 12.2 0.00 0.00 0.00 56 1014.6
20260502062528 56 12 7.0 12.2 0.00 0.00 0.00 55 1014.7
20260502062415 55 5 6.1 12.2 0.00 0.00 0.00 55 1014.6
20260502062328 56 360 7.0 12.2 0.00 0.00 0.00 55 1014.6
20260502062215 56 24 7.8 12.2 0.00 0.00 0.00 55 1014.6
20260502062142 56 38 8.7 12.2 0.00 0.00 0.00 55 1014.6
20260502062052 56 32 8.7 12.2 0.00 0.00 0.00 55 1014.6
20260502061826 56 26 7.8 12.2 0.00 0.00 0.00 55 1014.8
20260502061717 56 346 6.1 11.3 0.00 0.00 0.00 55 1014.9
20260502061418 56 17 7.8 11.3 0.00 0.00 0.00 55 1015.0
20260502061345 56 360 7.8 11.3 0.00 0.00 0.00 54 1015.0
20260502061212 56 355 6.1 11.3 0.00 0.00 0.00 54 1015.0
20260502061140 56 38 5.2 11.3 0.00 0.00 0.00 55 1015.0
20260502061009 56 32 5.2 12.2 0.00 0.00 0.00 54 1015.0
20260502060916 56 13 6.1 12.2 0.00 0.00 0.00 54 1015.0
20260502060823 56 9 6.1 12.2 0.00 0.00 0.00 54 1015.0
20260502060712 56 355 7.0 12.2 0.00 0.00 0.00 54 1014.9
20260502060619 56 11 7.8 12.2 0.00 0.00 0.00 54 1014.9
20260502060553 56 355 8.7 12.2 0.00 0.00 0.00 54 1015.0
20260502060347 56 44 8.7 12.2 0.00 0.00 0.00 54 1014.8
20260502060213 56 19 7.0 12.2 0.00 0.00 0.00 54 1014.9
20260502060120 56 360 5.2 10.4 0.00 0.00 0.00 54 1014.9
20260502060048 56 29 6.1 10.4 0.00 0.00 0.00 54 1014.9
20260502055919 56 360 7.0 10.4 0.00 0.00 0.00 53 1014.8
20260502055826 56 16 6.1 10.4 0.00 0.00 0.00 54 1014.8
20260502055714 56 344 6.1 10.4 0.00 0.00 0.00 54 1014.8
20260502055623 56 15 6.1 10.4 0.00 0.00 0.00 54 1014.8
20260502055511 56 5 5.2 13.0 0.00 0.00 0.00 54 1014.7
20260502055418 56 360 5.2 13.0 0.00 0.00 0.00 54 1014.7
20260502055308 56 9 5.2 13.9 0.00 0.00 0.00 54 1014.7
20260502055216 56 28 7.0 13.9 0.00 0.00 0.00 54 1014.8
20260502055143 56 360 7.0 13.9 0.00 0.00 0.00 54 1014.8
20260502055050 56 13 7.8 13.9 0.00 0.00 0.00 54 1014.7
20260502054809 56 344 7.8 13.9 0.00 0.00 0.00 53 1014.6
20260502054717 56 360 8.7 13.9 0.00 0.00 0.00 53 1014.6
20260502054644 56 26 8.7 13.9 0.00 0.00 0.00 53 1014.6
20260502054510 56 5 8.7 13.9 0.00 0.00 0.00 53 1014.4
20260502054418 56 360 8.7 13.9 0.00 0.00 0.00 54 1014.5
20260502054324 56 42 7.8 13.9 0.00 0.00 0.00 53 1014.5
20260502054215 56 5 8.7 13.9 0.00 0.00 0.00 53 1014.5
20260502054124 56 350 8.7 13.9 0.00 0.00 0.00 53 1014.5
20260502054010 56 13 8.7 13.9 0.00 0.00 0.00 53 1014.4
20260502053918 56 13 8.7 13.9 0.00 0.00 0.00 53 1014.4
20260502053825 56 5 9.6 13.9 0.00 0.00 0.00 52 1014.4
20260502053711 56 15 8.7 13.9 0.00 0.00 0.00 53 1014.5
20260502053618 56 355 8.7 13.9 0.00 0.00 0.00 52 1014.4
20260502053553 56 360 7.8 13.9 0.00 0.00 0.00 53 1014.4
20260502053325 56 20 7.8 13.9 0.00 0.00 0.00 52 1014.6
20260502053213 56 5 8.7 13.9 0.00 0.00 0.00 52 1014.7
20260502053122 56 24 9.6 13.9 0.00 0.00 0.00 52 1014.7
20260502053012 56 38 9.6 13.0 0.00 0.00 0.00 53 1014.6
20260502052920 56 360 8.7 13.0 0.00 0.00 0.00 52 1014.6
20260502052848 56 22 7.0 13.0 0.00 0.00 0.00 52 1014.6
20260502052716 56 355 7.8 13.0 0.00 0.00 0.00 52 1014.5
20260502052643 56 13 7.8 13.0 0.00 0.00 0.00 52 1014.5
20260502052510 56 28 7.8 13.0 0.00 0.00 0.00 52 1014.4
20260502052422 56 22 8.7 13.0 0.00 0.00 0.00 52 1014.4
20260502052310 56 360 9.6 13.0 0.00 0.00 0.00 52 1014.4
20260502052217 56 10 8.7 13.0 0.00 0.00 0.00 52 1014.5
20260502052125 56 355 7.0 13.0 0.00 0.00 0.00 52 1014.5
20260502052055 56 318 7.0 13.0 0.00 0.00 0.00 52 1014.4
20260502051812 56 355 8.7 13.0 0.00 0.00 0.00 52 1014.6
20260502051719 56 5 8.7 13.0 0.00 0.00 0.00 52 1014.5
20260502051628 56 32 9.6 13.0 0.00 0.00 0.00 52 1014.5
20260502051514 56 360 8.7 13.0 0.00 0.00 0.00 52 1014.5
20260502051442 56 11 7.0 13.0 0.00 0.00 0.00 51 1014.5
20260502051347 56 42 7.0 13.0 0.00 0.00 0.00 52 1014.5
20260502051218 57 360 7.0 11.3 0.00 0.00 0.00 52 1014.4
20260502051126 57 19 7.0 12.2 0.00 0.00 0.00 52 1014.4
20260502051014 57 19 7.0 12.2 0.00 0.00 0.00 52 1014.4
20260502050921 57 360 7.0 13.9 0.00 0.00 0.00 51 1014.4
20260502050810 57 5 6.1 13.9 0.00 0.00 0.00 52 1014.4
20260502050721 57 15 5.2 13.9 0.00 0.00 0.00 52 1014.4
20260502050628 57 5 5.2 13.9 0.00 0.00 0.00 52 1014.3
20260502050558 57 35 6.1 13.9 0.00 0.00 0.00 52 1014.4
20260502050311 57 360 8.7 13.9 0.00 0.00 0.00 51 1014.4
20260502050219 57 24 10.4 13.9 0.00 0.00 0.00 51 1014.4
20260502050109 57 355 9.6 13.9 0.00 0.00 0.00 50 1014.4
20260502050016 57 21 7.8 13.0 0.00 0.00 0.00 51 1014.3
20260502045921 57 13 7.0 12.2 0.00 0.00 0.00 50 1014.3
20260502045809 57 335 7.8 12.2 0.00 0.00 0.00 51 1014.3
20260502045716 57 43 8.7 12.2 0.00 0.00 0.00 51 1014.2
20260502045627 57 17 7.8 12.2 0.00 0.00 0.00 51 1014.2
20260502045515 57 28 7.0 12.2 0.00 0.00 0.00 51 1014.3
20260502045422 57 16 7.0 13.9 0.00 0.00 0.00 51 1014.3
20260502045309 57 9 7.0 13.9 0.00 0.00 0.00 50 1014.1
20260502045218 57 23 7.0 13.9 0.00 0.00 0.00 50 1014.1
20260502045145 57 16 7.8 13.9 0.00 0.00 0.00 50 1014.1
20260502045059 57 346 7.0 13.9 0.00 0.00 0.00 51 1014.0
20260502044812 57 22 6.1 13.9 0.00 0.00 0.00 51 1014.1
20260502044719 57 350 7.0 13.9 0.00 0.00 0.00 51 1014.1
20260502044647 57 360 7.8 13.9 0.00 0.00 0.00 51 1014.1
20260502044513 57 360 7.8 11.3 0.00 0.00 0.00 51 1014.0
20260502044424 57 9 7.0 10.4 0.00 0.00 0.00 51 1014.0
20260502044310 57 32 6.1 11.3 0.00 0.00 0.00 51 1014.0
20260502044217 57 28 6.1 11.3 0.00 0.00 0.00 51 1014.0
20260502044124 57 10 6.1 11.3 0.00 0.00 0.00 51 1014.0
20260502044031 57 37 7.0 11.3 0.00 0.00 0.00 51 1014.0
20260502043919 57 19 7.0 11.3 0.00 0.00 0.00 52 1014.0
20260502043831 57 355 6.1 11.3 0.00 0.00 0.00 51 1014.0
20260502043737 57 10 5.2 11.3 0.00 0.00 0.00 51 1014.0
20260502043623 57 18 7.0 11.3 0.00 0.00 0.00 51 1014.0
20260502043555 57 24 7.8 11.3 0.00 0.00 0.00 51 1014.1
20260502043348 57 33 7.8 12.2 0.00 0.00 0.00 51 1014.1
20260502043219 57 28 7.0 12.2 0.00 0.00 0.00 52 1014.1
20260502043147 57 13 6.1 12.2 0.00 0.00 0.00 51 1014.1
20260502043014 57 9 6.1 12.2 0.00 0.00 0.00 51 1014.1
20260502042942 57 9 6.1 12.2 0.00 0.00 0.00 51 1014.1
20260502042810 57 343 6.1 12.2 0.00 0.00 0.00 52 1014.0
20260502042738 57 5 7.8 12.2 0.00 0.00 0.00 52 1014.0
20260502042625 57 27 7.8 12.2 0.00 0.00 0.00 52 1014.0
20260502042516 57 5 7.0 10.4 0.00 0.00 0.00 52 1014.0
20260502042423 57 335 6.1 8.7 0.00 0.00 0.00 51 1014.0
20260502042311 57 38 5.2 8.7 0.00 0.00 0.00 52 1014.1
20260502042238 57 5 4.3 8.7 0.00 0.00 0.00 52 1014.1
20260502042124 57 42 4.3 8.7 0.00 0.00 0.00 52 1014.1
20260502042058 57 24 4.3 8.7 0.00 0.00 0.00 52 1014.1
20260502041833 57 26 5.2 8.7 0.00 0.00 0.00 52 1014.1
20260502041719 57 24 5.2 8.7 0.00 0.00 0.00 53 1014.2
20260502041626 57 46 5.2 8.7 0.00 0.00 0.00 53 1014.2
20260502041513 57 36 5.2 8.7 0.00 0.00 0.00 53 1014.1
20260502041421 57 30 4.3 7.8 0.00 0.00 0.00 53 1014.1
20260502041310 57 42 3.5 7.8 0.00 0.00 0.00 53 1014.1
20260502041238 57 9 4.3 7.8 0.00 0.00 0.00 53 1014.2
20260502041125 57 31 4.3 8.7 0.00 0.00 0.00 53 1014.2
20260502041012 57 355 4.3 8.7 0.00 0.00 0.00 54 1014.1
20260502040921 58 31 4.3 8.7 0.00 0.00 0.00 54 1014.1
20260502040811 57 5 4.3 8.7 0.00 0.00 0.00 54 1014.4
20260502040719 57 22 5.2 8.7 0.00 0.00 0.00 54 1014.3
20260502040626 57 24 5.2 8.7 0.00 0.00 0.00 53 1014.3
20260502040556 57 34 5.2 8.7 0.00 0.00 0.00 54 1014.2
20260502040309 57 14 4.3 9.6 0.00 0.00 0.00 53 1014.1
20260502040220 58 11 5.2 9.6 0.00 0.00 0.00 53 1014.1
20260502040127 58 17 4.3 9.6 0.00 0.00 0.00 54 1014.2
20260502040014 58 24 4.3 9.6 0.00 0.00 0.00 55 1014.2
20260502035921 58 12 4.3 9.6 0.00 0.00 0.00 55 1014.2
20260502035809 58 5 5.2 9.6 0.00 0.00 0.00 55 1014.3
20260502035720 58 16 6.1 9.6 0.00 0.00 0.00 55 1014.3
20260502035627 58 10 6.1 9.6 0.00 0.00 0.00 55 1014.3
20260502035535 58 13 6.1 9.6 0.00 0.00 0.00 55 1014.3
20260502035421 58 11 6.1 9.6 0.00 0.00 0.00 55 1014.3
20260502035327 58 13 6.1 9.6 0.00 0.00 0.00 55 1014.1
20260502035214 58 38 6.1 9.6 0.00 0.00 0.00 56 1014.1
20260502035126 58 41 6.1 9.6 0.00 0.00 0.00 56 1014.1
20260502035056 58 360 5.2 8.7 0.00 0.00 0.00 56 1014.0
20260502034810 58 5 5.2 8.7 0.00 0.00 0.00 57 1014.1
20260502034738 58 5 5.2 8.7 0.00 0.00 0.00 57 1014.0
20260502034623 58 5 5.2 8.7 0.00 0.00 0.00 56 1014.0
20260502034513 58 21 5.2 8.7 0.00 0.00 0.00 57 1014.1
20260502034419 58 40 4.3 8.7 0.00 0.00 0.00 57 1014.2
20260502034327 58 14 4.3 8.7 0.00 0.00 0.00 57 1014.2
20260502034216 58 12 4.3 8.7 0.00 0.00 0.00 57 1014.1
20260502034123 58 22 4.3 8.7 0.00 0.00 0.00 57 1014.1
20260502034012 58 24 5.2 8.7 0.00 0.00 0.00 56 1014.1
20260502033924 58 38 5.2 8.7 0.00 0.00 0.00 56 1014.1
20260502033813 58 30 5.2 8.7 0.00 0.00 0.00 56 1014.0
20260502033721 58 25 5.2 8.7 0.00 0.00 0.00 57 1014.0
20260502033608 58 34 4.3 9.6 0.00 0.00 0.00 56 1014.1
20260502033542 58 30 4.3 9.6 0.00 0.00 0.00 56 1014.1
20260502033316 58 26 4.3 9.6 0.00 0.00 0.00 57 1014.2
20260502033222 58 49 4.3 9.6 0.00 0.00 0.00 57 1014.2
20260502033109 58 28 4.3 9.6 0.00 0.00 0.00 58 1014.2
20260502033018 58 15 4.3 9.6 0.00 0.00 0.00 59 1014.3
20260502032908 58 59 5.2 9.6 0.00 0.00 0.00 58 1014.3
20260502032816 58 350 5.2 9.6 0.00 0.00 0.00 58 1014.3
20260502032723 58 16 5.2 9.6 0.00 0.00 0.00 59 1014.3
20260502032611 58 17 6.1 9.6 0.00 0.00 0.00 58 1014.2
20260502032518 58 13 6.1 9.6 0.00 0.00 0.00 58 1014.3
20260502032426 58 44 5.2 8.7 0.00 0.00 0.00 58 1014.3
20260502032336 58 5 5.2 8.7 0.00 0.00 0.00 58 1014.4
20260502032221 58 9 4.3 8.7 0.00 0.00 0.00 59 1014.4
20260502032128 58 22 5.2 8.7 0.00 0.00 0.00 59 1014.4
20260502032059 58 27 5.2 12.2 0.00 0.00 0.00 59 1014.4
20260502031813 58 51 4.3 12.2 0.00 0.00 0.00 60 1014.5
20260502031722 58 13 4.3 12.2 0.00 0.00 0.00 59 1014.5
20260502031609 58 18 5.2 12.2 0.00 0.00 0.00 60 1014.5
20260502031518 58 360 6.1 12.2 0.00 0.00 0.00 59 1014.5
20260502031446 58 22 6.1 12.2 0.00 0.00 0.00 60 1014.5
20260502031313 58 40 7.0 12.2 0.00 0.00 0.00 61 1014.6
20260502031220 58 16 5.2 8.7 0.00 0.00 0.00 61 1014.6
20260502031111 58 20 5.2 9.6 0.00 0.00 0.00 61 1014.6
20260502031020 58 11 6.1 10.4 0.00 0.00 0.00 61 1014.6
20260502030927 58 11 6.1 10.4 0.00 0.00 0.00 61 1014.6
20260502030814 58 36 5.2 10.4 0.00 0.00 0.00 61 1014.7
20260502030721 58 16 4.3 10.4 0.00 0.00 0.00 62 1014.7
20260502030613 58 9 5.2 10.4 0.00 0.00 0.00 62 1014.7
20260502030544 58 5 7.0 10.4 0.00 0.00 0.00 62 1014.7
20260502030318 58 5 6.1 10.4 0.00 0.00 0.00 63 1014.7
20260502030227 58 360 4.3 10.4 0.00 0.00 0.00 65 1014.7
20260502030114 59 19 3.5 10.4 0.00 0.00 0.00 64 1014.6
20260502030026 59 345 4.3 10.4 0.00 0.00 0.00 64 1014.6
20260502025913 59 5 6.1 10.4 0.00 0.00 0.00 64 1014.5
20260502025840 59 360 6.1 10.4 0.00 0.00 0.00 64 1014.6
20260502025726 59 26 6.1 10.4 0.00 0.00 0.00 65 1014.6
20260502025615 59 5 7.0 10.4 0.00 0.00 0.00 65 1014.5
20260502025523 59 355 7.0 10.4 0.00 0.00 0.00 62 1014.5
20260502025414 59 30 6.1 10.4 0.00 0.00 0.00 62 1014.6
20260502025322 59 35 6.1 9.6 0.00 0.00 0.00 61 1014.6
20260502025209 60 30 7.0 9.6 0.00 0.00 0.00 63 1014.5
20260502025118 60 340 7.0 10.4 0.00 0.00 0.00 62 1014.6
20260502025052 60 355 7.0 10.4 0.00 0.00 0.00 61 1014.6
20260502024827 60 37 6.1 10.4 0.00 0.00 0.00 59 1014.6
20260502024713 60 355 7.0 10.4 0.00 0.00 0.00 58 1014.6
20260502024621 60 13 7.0 10.4 0.00 0.00 0.00 58 1014.6
20260502024509 60 24 6.1 10.4 0.00 0.00 0.00 59 1014.5
20260502024436 60 360 7.0 11.3 0.00 0.00 0.00 58 1014.5
20260502024347 60 355 7.0 13.9 0.00 0.00 0.00 58 1014.5
20260502024234 60 360 7.0 13.9 0.00 0.00 0.00 58 1014.5
20260502024140 60 19 6.1 13.9 0.00 0.00 0.00 59 1014.5
20260502024027 60 13 5.2 13.9 0.00 0.00 0.00 59 1014.5
20260502023914 60 339 4.3 13.9 0.00 0.00 0.00 59 1014.5
20260502023821 60 15 5.2 13.9 0.00 0.00 0.00 59 1014.5
20260502023713 60 45 7.8 13.9 0.00 0.00 0.00 58 1014.4
20260502023639 60 11 7.8 13.9 0.00 0.00 0.00 58 1014.4
20260502023611 60 5 8.7 13.9 0.00 0.00 0.00 58 1014.4
20260502023322 60 9 6.1 13.0 0.00 0.00 0.00 58 1014.3
20260502023210 60 5 4.3 13.0 0.00 0.00 0.00 58 1014.3
20260502023123 60 350 7.0 13.0 0.00 0.00 0.00 58 1014.3
20260502023010 60 337 8.7 13.9 0.00 0.00 0.00 58 1014.4
20260502022918 60 5 8.7 13.9 0.00 0.00 0.00 58 1014.3
20260502022848 60 16 7.8 13.9 0.00 0.00 0.00 58 1014.3
20260502022714 60 5 6.1 13.9 0.00 0.00 0.00 58 1014.2
20260502022621 60 342 6.1 13.9 0.00 0.00 0.00 58 1014.2
20260502022533 60 360 7.8 13.9 0.00 0.00 0.00 58 1014.1
20260502022420 60 341 10.4 15.6 0.00 0.00 0.00 58 1014.1
20260502022309 60 355 9.6 15.6 0.00 0.00 0.00 58 1014.1
20260502022217 60 15 8.7 15.6 0.00 0.00 0.00 58 1014.1
20260502022125 60 5 8.7 15.6 0.00 0.00 0.00 58 1014.1
20260502022058 60 19 8.7 15.6 0.00 0.00 0.00 59 1014.1
20260502021833 60 15 9.6 15.6 0.00 0.00 0.00 59 1014.0
20260502021720 61 338 10.4 15.6 0.00 0.00 0.00 59 1014.0
20260502021608 61 16 9.6 15.6 0.00 0.00 0.00 60 1013.9
20260502021514 61 323 7.8 13.9 0.00 0.00 0.00 61 1013.9
20260502021421 61 51 7.0 13.9 0.00 0.00 0.00 62 1013.9
20260502021313 61 355 6.1 13.9 0.00 0.00 0.00 62 1013.9
20260502021220 61 5 7.0 13.9 0.00 0.00 0.00 62 1013.9
20260502021127 61 360 7.8 13.9 0.00 0.00 0.00 63 1013.9
20260502021015 61 25 8.7 13.9 0.00 0.00 0.00 62 1014.0
20260502020922 61 355 8.7 13.9 0.00 0.00 0.00 63 1014.0
20260502020812 61 22 6.1 13.9 0.00 0.00 0.00 64 1014.0
20260502020718 61 15 5.2 9.6 0.00 0.00 0.00 63 1013.9
20260502020625 61 20 6.1 9.6 0.00 0.00 0.00 63 1013.9
20260502020555 61 15 6.1 9.6 0.00 0.00 0.00 63 1014.0
20260502020313 61 360 7.0 13.9 0.00 0.00 0.00 64 1013.9
20260502020220 61 5 6.1 13.9 0.00 0.00 0.00 64 1013.9
20260502020109 61 5 5.2 13.9 0.00 0.00 0.00 64 1013.7
20260502020016 61 5 5.2 13.9 0.00 0.00 0.00 64 1013.7
20260502015943 61 360 5.2 13.9 0.00 0.00 0.00 64 1013.7
20260502015810 61 14 7.0 13.9 0.00 0.00 0.00 64 1013.6
20260502015721 61 5 8.7 13.9 0.00 0.00 0.00 64 1013.6
20260502015608 61 340 7.8 13.9 0.00 0.00 0.00 65 1013.7
20260502015517 61 9 7.0 12.2 0.00 0.00 0.00 66 1013.7
20260502015423 61 355 6.1 9.6 0.00 0.00 0.00 66 1013.7
20260502015331 61 326 7.0 9.6 0.00 0.00 0.00 67 1013.6
20260502015237 61 5 5.2 9.6 0.00 0.00 0.00 66 1013.7
20260502015125 61 336 5.2 9.6 0.00 0.00 0.00 67 1013.7
20260502015057 61 355 5.2 7.8 0.00 0.00 0.00 67 1013.6
20260502014810 61 5 5.2 7.8 0.00 0.00 0.00 66 1013.7
20260502014717 61 355 5.2 7.8 0.00 0.00 0.00 67 1013.7
20260502014624 61 9 4.3 7.8 0.00 0.00 0.00 66 1013.7
20260502014514 61 355 5.2 7.8 0.00 0.00 0.00 67 1013.6
20260502014441 61 348 5.2 7.8 0.00 0.00 0.00 67 1013.7
20260502014347 61 346 6.1 7.8 0.00 0.00 0.00 66 1013.7
20260502014213 62 338 4.3 7.8 0.00 0.00 0.00 66 1013.7
20260502014119 62 360 4.3 7.8 0.00 0.00 0.00 66 1013.7
20260502014026 62 355 4.3 7.8 0.00 0.00 0.00 66 1013.7
20260502013917 62 5 4.3 10.4 0.00 0.00 0.00 66 1013.7
20260502013824 62 355 4.3 10.4 0.00 0.00 0.00 66 1013.7
20260502013712 62 345 4.3 10.4 0.00 0.00 0.00 66 1013.7
20260502013620 62 343 4.3 10.4 0.00 0.00 0.00 65 1013.7
20260502013551 62 360 3.5 10.4 0.00 0.00 0.00 65 1013.7
20260502013309 62 10 5.2 10.4 0.00 0.00 0.00 65 1013.6
20260502013216 62 12 5.2 10.4 0.00 0.00 0.00 65 1013.5
20260502013124 62 5 5.2 10.4 0.00 0.00 0.00 65 1013.5
20260502013011 62 9 3.5 7.8 0.00 0.00 0.00 65 1013.6
20260502012918 62 17 4.3 7.8 0.00 0.00 0.00 65 1013.7
20260502012810 62 360 6.1 7.8 0.00 0.00 0.00 65 1013.6
20260502012717 62 22 5.2 7.8 0.00 0.00 0.00 65 1013.7
20260502012626 62 13 4.3 7.8 0.00 0.00 0.00 65 1013.7
20260502012513 62 360 3.5 7.8 0.00 0.00 0.00 66 1013.7
20260502012421 62 343 4.3 7.8 0.00 0.00 0.00 66 1013.7
20260502012312 62 26 4.3 7.8 0.00 0.00 0.00 66 1013.6
20260502012219 62 5 4.3 7.8 0.00 0.00 0.00 66 1013.8
20260502012127 62 17 4.3 7.8 0.00 0.00 0.00 66 1013.8
20260502012058 62 351 5.2 7.8 0.00 0.00 0.00 66 1013.7
20260502011812 62 340 5.2 7.8 0.00 0.00 0.00 66 1013.7
20260502011723 62 342 5.2 7.8 0.00 0.00 0.00 66 1013.7
20260502011610 62 321 5.2 7.0 0.00 0.00 0.00 65 1013.7
20260502011517 62 342 4.3 7.0 0.00 0.00 0.00 65 1013.7
20260502011426 62 340 4.3 7.0 0.00 0.00 0.00 65 1013.7
20260502011313 62 348 4.3 7.0 0.00 0.00 0.00 65 1013.7
20260502011241 62 336 4.3 7.0 0.00 0.00 0.00 65 1013.7
20260502011112 62 343 4.3 7.0 0.00 0.00 0.00 65 1013.7
20260502011019 62 343 4.3 7.0 0.00 0.00 0.00 65 1013.6
20260502010926 62 337 3.5 7.0 0.00 0.00 0.00 65 1013.6